Theta_e
302 302 302 303 303 303 303 303 303 305 311 314 316 317 318 319 321 322 322 322 321 321 319 318 318 320 319 318 318 319 319 318 318 315 314 312 310 309 306 294 293 293 294
302 303 303 303 303 302 302 303 303 303 305 312 316 318 318 319 320 321 320 321 320 319 319 318 317 317 316 317 319 319 318 318 316 315 313 311 309 307 296 293 293 293 294
303 303 303 303 302 302 301 302 303 303 303 309 314 317 318 319 318 317 317 317 320 319 318 318 318 319 319 318 317 317 317 316 316 315 314 311 309 301 293 292 293 293 294
303 303 303 303 303 302 301 301 302 303 303 305 313 316 317 317 318 318 317 316 317 318 318 318 319 317 317 317 317 316 315 316 316 315 314 312 308 300 293 293 293 293 294
303 304 304 304 303 303 303 302 302 303 303 304 309 313 315 317 318 318 318 317 316 318 318 317 317 316 316 315 315 315 315 315 315 314 311 308 306 295 293 293 292 293 293
303 303 304 304 304 304 305 304 304 305 306 306 309 312 313 315 315 315 315 316 316 317 316 315 314 314 314 313 313 313 312 311 307 303 300 301 296 294 293 293 293 293 294
303 303 303 304 304 305 305 305 307 307 309 310 311 313 313 313 313 315 315 315 315 314 314 313 313 312 312 312 311 310 308 303 299 296 295 295 294 294 294 293 292 292 293
302 300 302 303 304 305 305 306 307 309 309 310 311 312 312 313 313 312 312 312 313 313 311 311 310 309 309 308 308 307 301 296 295 295 295 294 294 294 293 293 292 292 293
301 297 298 303 303 304 305 305 306 306 308 309 310 311 311 310 310 311 311 311 311 308 308 307 307 307 305 303 301 296 295 295 295 295 294 294 294 294 293 293 293 293 293
300 298 295 297 303 304 304 305 305 306 307 307 307 307 309 308 309 309 310 310 309 307 307 306 305 303 300 297 296 295 294 294 294 294 294 294 294 294 294 293 293 293 293
300 299 296 295 296 302 303 304 305 305 305 307 308 307 308 308 307 306 306 307 307 307 307 306 302 297 296 295 294 294 294 294 294 294 294 294 294 294 293 293 293 292 292
297 297 297 295 294 294 297 301 304 304 304 304 304 305 305 305 305 305 305 305 305 305 304 303 301 296 295 294 294 294 294 294 294 294 294 294 293 293 293 293 293 293 293
296 296 295 295 294 294 294 294 298 302 303 304 304 304 304 305 305 305 305 304 303 302 300 298 298 295 294 294 294 294 294 294 294 294 294 294 294 293 293 293 293 293 293
296 296 295 295 295 295 294 294 294 293 297 303 304 304 304 304 304 304 304 303 301 300 298 297 295 294 294 294 294 293 293 293 293 293 293 293 293 293 293 293 293 293 292
298 297 297 296 296 296 295 295 294 294 294 293 294 298 301 301 299 299 300 299 297 295 295 296 296 294 294 294 294 293 293 293 293 293 293 293 293 293 293 292 292 292 292
301 301 300 299 299 298 297 296 296 295 295 294 294 293 293 293 294 295 296 296 295 294 294 294 293 293 293 293 293 293 293 293 293 292 292 292 292 292 292 292 292 292 291
301 301 301 301 301 300 300 300 300 298 297 297 296 295 294 293 293 293 293 293 292 292 292 292 293 293 293 293 293 293 293 293 293 292 292 292 292 291 292 292 291 291 291
303 302 302 301 301 301 301 301 301 301 300 300 298 297 296 295 293 293 292 293 293 293 293 293 293 293 292 292 292 292 292 292 292 292 292 292 292 291 291 291 291 291 291
305 305 304 303 302 302 303 304 304 304 303 303 301 299 298 297 296 294 293 293 293 294 294 293 293 292 292 292 291 291 291 291 291 291 291 291 291 291 291 291 291 291 290
305 305 305 304 304 304 304 305 305 305 304 303 302 301 299 298 297 297 296 296 295 294 294 294 294 293 292 291 291 291 290 290 290 291 291 291 291 290 290 290 290 290 290
306 305 305 305 305 304 304 304 304 303 303 302 302 301 299 299 299 297 296 297 296 296 295 295 294 293 293 292 291 291 291 290 290 290 290 290 290 290 290 290 289 289 289
309 310 311 311 308 304 303 303 302 301 300 300 300 299 298 298 298 298 297 296 296 295 295 295 295 295 294 293 293 292 291 291 291 290 290 289 289 289 289 289 289 289 289
307 307 307 307 308 307 304 300 299 299 299 298 297 296 296 296 296 296 295 295 294 294 294 293 293 294 293 293 293 293 292 292 291 291 291 290 290 289 289 288 288 288 288
307 305 303 305 306 305 304 303 301 297 296 295 295 294 294 294 293 293 293 293 292 292 292 292 292 292 292 292 292 292 293 293 292 291 290 290 290 291 290 290 289 289 289
303 303 301 301 300 299 298 297 296 295 294 293 293 293 293 293 292 292 292 292 291 291 290 290 290 291 290 290 290 290 291 291 291 291 290 289 289 289 289 289 289 290 291
298 298 298 297 295 294 292 291 290 290 291 291 291 291 290 290 289 289 289 289 289 289 288 288 288 288 288 288 287 288 288 286 286 286 286 287 287 287 287 287 288 288 288
Wind_Speed
6 6 6 5 3 1 2 3 4 6 7 14 10 5 3 11 19 18 15 15 15 18 11 9 6 10 16 15 12 9 8 10 8 7 7 8 9 6 2 3 3 4 6
7 7 7 6 5 3 1 3 5 8 8 13 14 12 9 13 13 18 18 16 7 8 10 10 7 11 8 11 9 7 7 8 8 8 10 12 10 8 7 6 5 4 7
7 8 8 9 8 6 3 2 5 9 10 10 13 14 12 15 15 13 10 9 15 13 11 10 8 10 10 9 4 5 7 6 6 5 6 10 10 10 9 9 6 6 6
6 7 8 10 10 8 7 6 7 9 10 11 13 13 13 13 11 9 8 8 9 9 11 10 7 5 6 5 6 6 6 8 8 7 7 9 11 12 12 9 8 7 6
6 8 8 10 11 11 11 10 12 11 11 13 13 12 12 11 10 8 9 8 7 6 8 7 7 6 6 5 3 3 4 6 7 7 8 11 13 14 13 13 10 7 7
6 6 8 10 12 12 13 12 12 13 13 13 13 12 11 10 8 6 6 8 9 9 6 7 6 6 5 4 3 4 5 5 7 7 9 11 13 14 13 12 10 10 7
5 5 6 8 12 12 12 13 14 13 14 14 14 13 12 10 8 11 10 8 7 6 5 5 4 4 4 3 4 4 5 6 7 7 7 9 10 10 11 12 12 7 5
4 5 5 7 7 11 11 11 11 12 12 12 11 13 12 11 12 10 8 8 7 5 4 3 3 3 4 4 5 6 6 7 7 7 10 10 12 12 12 10 9 9 8
4 4 4 4 5 7 8 8 9 10 9 9 10 10 9 10 7 6 8 8 7 6 4 3 5 7 6 6 6 6 6 7 9 11 12 11 13 13 12 11 12 12 10
3 4 3 4 5 6 6 6 7 8 9 9 9 7 6 7 6 7 7 9 8 7 6 5 6 7 7 7 7 7 7 7 9 12 12 13 13 12 11 12 10 9 7
3 2 2 3 4 5 6 6 6 7 8 7 10 9 9 9 8 5 5 7 6 7 8 8 6 6 7 7 7 8 9 9 11 12 12 13 13 14 14 13 12 11 8
4 4 3 2 2 3 4 6 8 8 7 7 8 8 7 7 7 7 6 7 8 9 8 8 8 8 8 8 9 10 11 12 12 13 14 14 14 14 14 14 13 11 10
7 5 4 4 3 3 5 6 7 8 11 11 10 10 10 9 9 10 10 10 10 10 10 9 10 10 10 11 12 12 12 12 13 14 15 16 16 16 16 15 14 13 13
9 8 8 6 6 5 5 6 7 8 9 11 13 13 13 13 13 13 13 13 12 12 12 13 12 12 12 13 14 15 15 16 16 16 17 19 19 19 18 17 17 16 16
10 10 10 10 9 8 8 8 8 9 10 11 13 15 15 14 13 14 14 14 13 13 15 16 16 15 15 15 16 17 18 19 20 20 20 20 20 22 22 21 21 19 19
15 14 13 13 12 12 12 12 11 10 12 13 13 14 15 14 16 17 17 17 17 17 19 19 18 17 17 17 18 19 21 22 22 22 22 22 23 24 24 25 24 24 23
17 15 16 16 16 16 16 16 16 16 17 17 16 16 16 15 15 18 19 20 20 22 22 21 20 19 18 18 19 19 20 20 22 24 25 26 26 28 29 29 29 28 28
16 15 16 17 17 17 17 18 19 20 21 22 21 21 21 20 19 19 20 23 25 26 24 22 22 21 21 21 20 20 20 21 23 24 26 26 26 27 29 30 29 29 29
13 14 13 15 16 17 18 19 20 22 24 25 24 26 24 25 25 25 26 29 29 28 26 24 22 21 21 21 22 22 23 24 25 25 25 26 26 28 29 29 29 30 30
11 12 13 15 16 18 20 21 23 25 26 27 26 25 24 27 31 32 32 33 33 32 30 28 25 23 22 22 23 23 25 26 27 28 28 28 28 28 30 30 30 30 31
9 10 12 15 17 18 21 23 24 26 27 28 27 25 24 27 30 31 32 33 34 34 32 30 29 28 26 26 25 26 26 26 27 28 28 28 30 31 30 32 32 31 32
13 20 23 25 23 23 24 25 25 26 26 26 26 24 24 28 27 28 29 30 31 31 31 32 31 31 30 29 29 29 29 29 29 28 28 29 29 31 32 32 32 33 34
18 21 24 25 25 24 22 20 21 22 23 23 23 23 22 24 25 24 24 25 26 27 28 28 29 30 29 29 30 31 32 32 30 29 30 30 30 31 31 32 32 32 33
27 23 21 22 23 24 25 25 24 22 22 21 20 20 20 21 21 21 21 21 23 24 25 26 26 27 26 27 28 28 29 31 31 30 31 32 32 31 32 33 33 32 32
20 20 20 21 21 21 21 21 19 19 18 18 16 17 17 18 19 19 20 20 21 21 22 23 24 24 24 25 26 26 26 27 27 26 27 29 31 32 33 33 33 33 33
19 19 19 19 18 15 14 13 13 13 13 13 13 12 12 12 13 13 13 14 15 16 16 16 18 18 19 20 20 21 21 21 22 22 22 24 26 27 28 30 32 34 34
Wind_Direction
29 27 27 32 359 16 186 182 189 196 182 176 175 175 227 198 196 195 188 195 206 207 190 158 239 226 208 231 245 245 231 236 244 215 215 199 200 218 209 132 106 69 58
29 23 27 39 36 6 42 163 181 196 184 161 171 155 162 141 175 198 210 209 206 192 183 212 217 225 238 241 251 235 238 236 237 218 187 188 191 192 167 153 118 91 71
37 33 32 42 31 42 49 129 166 184 180 173 154 157 160 144 145 141 149 148 172 190 218 226 236 242 256 239 187 191 215 222 224 215 209 202 197 178 172 161 137 108 81
57 48 52 59 49 50 65 83 144 162 171 169 164 158 163 160 164 171 177 189 221 225 222 218 213 195 189 181 217 227 212 210 213 218 216 207 190 184 177 163 152 127 106
70 54 55 67 67 65 65 80 104 120 140 155 157 153 152 158 155 165 172 189 190 172 168 165 167 174 196 203 217 240 222 224 215 225 224 200 194 185 180 173 164 143 131
80 66 59 79 78 74 80 91 100 107 118 127 136 144 151 151 149 164 149 146 149 145 160 163 172 194 217 218 209 206 207 228 230 220 211 194 185 181 185 178 173 162 129
111 100 84 79 102 91 90 98 101 109 118 126 134 142 150 153 152 145 138 144 150 154 169 181 166 174 196 199 221 220 224 219 210 201 193 179 180 176 188 183 181 192 172
116 107 118 105 102 114 110 105 113 116 128 133 140 141 145 147 148 150 164 162 178 195 174 156 179 198 218 238 242 239 225 200 187 184 174 170 172 176 174 176 187 184 170
129 111 127 145 128 125 124 136 133 133 141 140 143 145 156 158 145 155 162 159 175 174 194 236 233 237 249 247 223 219 211 189 179 177 172 168 173 172 169 176 183 180 187
152 125 120 131 160 157 147 146 147 158 168 177 172 182 179 161 178 189 186 201 203 222 227 237 233 242 237 229 218 203 190 182 182 181 174 176 179 176 177 175 185 190 196
192 162 146 135 153 175 192 189 179 179 177 182 189 202 203 196 201 228 229 224 226 241 251 241 243 248 235 221 210 201 192 187 190 184 187 190 189 189 191 189 189 198 199
224 232 229 213 199 184 194 210 214 213 204 197 197 203 212 222 223 227 240 242 246 254 254 251 251 240 223 220 217 206 198 195 196 198 202 204 203 204 204 203 207 208 213
227 230 236 247 244 242 234 219 222 229 230 228 230 229 229 236 239 244 252 254 255 259 261 262 258 251 230 218 214 215 212 213 215 216 216 218 216 214 213 213 214 217 221
230 238 243 239 248 255 257 263 255 240 240 241 242 246 247 247 252 258 256 258 254 255 259 257 255 248 239 233 227 224 222 220 220 221 226 229 230 228 227 226 225 226 230
243 244 251 254 256 257 256 258 264 266 263 257 252 250 251 251 250 248 249 251 251 252 255 257 262 261 253 247 242 237 234 231 229 228 229 232 236 238 236 235 236 237 239
254 255 260 263 265 267 268 267 266 263 270 271 267 266 265 264 260 259 257 256 258 256 254 257 260 259 255 256 253 247 243 243 241 240 239 238 239 243 245 243 245 247 247
254 258 262 263 265 267 269 270 270 270 265 265 268 271 270 267 267 270 269 267 262 259 257 261 263 263 263 262 262 262 260 257 253 249 245 242 241 241 242 243 245 246 248
254 254 257 261 264 267 271 275 276 271 268 268 267 266 264 263 261 258 261 264 265 267 270 268 268 266 264 263 261 262 262 261 259 256 256 256 254 254 253 253 255 258 258
247 255 258 259 261 264 267 272 276 279 279 278 270 266 266 266 264 259 256 258 264 267 271 272 273 273 272 272 272 269 268 264 262 261 259 258 255 255 256 256 257 257 257
247 247 256 267 271 270 270 274 279 282 282 281 275 271 269 265 261 261 261 263 265 267 270 272 275 275 274 273 271 270 268 267 266 265 264 264 263 261 260 260 259 259 259
254 260 266 273 276 279 280 279 281 281 280 278 275 274 270 263 262 262 263 263 265 268 271 272 273 271 268 266 266 265 264 265 266 267 267 266 265 263 262 262 262 261 260
267 279 281 280 281 286 281 280 282 282 281 280 279 276 273 268 264 264 265 265 266 266 267 268 268 267 266 264 262 262 263 263 262 263 265 266 265 265 265 261 260 260 260
270 272 272 267 266 271 281 286 287 284 279 277 278 277 274 272 272 270 269 269 268 267 266 265 267 268 267 265 260 258 259 261 262 261 262 262 264 265 265 265 265 263 262
266 265 267 268 269 273 276 279 281 287 285 277 272 270 271 272 272 273 271 267 265 266 267 268 268 267 266 266 265 265 264 263 262 261 260 260 262 261 263 265 264 265 266
265 269 276 280 281 282 281 279 281 279 280 282 279 276 275 274 274 273 271 272 271 269 269 271 273 273 272 271 272 271 270 267 264 261 259 260 260 259 261 264 265 267 268
277 277 276 277 278 281 289 290 290 288 288 291 293 292 288 286 285 285 283 282 281 282 281 279 278 277 274 273 272 270 268 267 266 264 262 262 262 263 265 266 267 268 270